Probability
0 0 0 0 0 0 0 1 2 1 0 0 0 0 0 0 0 0 0 0 0 0 0 0 0 0 0 0 0 0 0 0 0 0 0 0 0 0 0 0 0 0 0
0 0 0 0 0 0 0 1 2 1 0 0 0 0 0 0 0 0 0 0 0 0 0 0 0 0 0 0 0 0 0 0 0 0 0 0 0 0 0 0 0 0 0
0 0 0 0 0 0 0 1 2 1 0 0 0 0 0 0 0 0 0 0 0 0 0 0 0 0 0 0 0 0 0 0 0 0 0 0 0 0 0 0 0 0 0
0 0 0 0 0 0 0 0 1 1 0 0 0 0 0 0 0 0 0 0 0 0 0 0 0 0 0 0 0 0 0 0 0 0 0 0 0 0 0 0 0 0 0
0 0 0 0 0 0 0 0 0 0 0 0 0 0 0 0 0 0 0 0 0 0 0 0 0 0 0 0 0 0 0 0 0 0 0 0 0 0 0 0 0 0 0
0 0 0 0 0 0 0 0 0 0 0 0 0 0 0 0 0 0 0 0 0 0 0 0 0 0 0 0 0 0 0 0 0 0 0 0 0 0 0 0 0 0 0
0 0 0 0 0 0 0 0 0 0 0 0 0 0 0 0 0 0 0 0 0 0 0 0 0 0 0 0 0 0 0 0 0 0 0 0 0 0 0 0 0 0 0
0 1 1 1 0 0 0 0 0 0 0 0 0 0 0 0 0 0 0 0 0 0 0 0 0 0 0 0 0 0 0 0 0 0 0 0 0 0 0 0 0 0 0
0 1 1 1 0 0 0 0 0 0 0 0 0 0 0 0 0 0 0 0 0 0 0 0 0 0 0 0 0 0 0 0 0 0 0 0 0 0 0 0 0 0 0
0 0 0 0 0 0 0 0 0 0 0 0 0 0 0 0 0 0 0 0 0 0 0 0 0 0 0 0 0 0 0 0 0 0 0 0 0 0 0 0 0 0 0
0 0 0 0 0 0 0 0 0 0 0 0 0 0 0 0 0 0 0 0 0 0 0 0 0 0 0 0 0 0 0 0 0 0 0 0 0 0 0 0 0 0 0
0 0 0 1 1 1 0 0 0 0 0 0 0 0 0 0 0 0 0 0 0 0 0 0 0 0 0 0 0 0 0 0 0 0 0 0 0 0 0 0 0 0 0
0 0 0 1 2 1 1 1 1 1 0 0 0 0 0 0 0 0 0 0 0 0 0 0 0 0 0 0 0 0 0 0 0 0 0 0 0 0 0 0 0 0 0
1 0 1 2 2 1 1 2 2 1 0 0 0 0 0 0 0 0 0 0 0 0 0 0 0 0 0 0 0 0 0 0 0 0 0 0 0 0 0 0 0 0 0
2 2 2 3 3 1 1 1 1 0 0 1 0 0 0 0 0 0 0 0 0 0 0 0 0 0 0 0 0 0 0 0 0 0 0 0 0 0 0 0 0 0 0
4 3 4 5 5 3 2 1 1 1 0 1 1 0 0 0 0 0 0 0 0 0 0 0 0 0 0 0 0 0 0 0 0 0 0 0 0 0 0 0 0 0 0
6 5 4 5 5 5 4 2 2 2 1 1 1 1 0 0 0 0 0 0 0 0 0 0 0 0 0 0 0 0 0 0 0 0 0 0 0 0 0 0 0 0 0
9 8 5 4 4 4 4 4 3 2 1 2 2 1 1 1 0 0 0 0 0 1 1 0 0 0 0 0 0 0 0 0 0 0 0 0 0 0 0 0 0 0 0
11 10 7 5 4 4 4 4 4 2 2 2 2 2 2 2 2 1 1 1 1 3 3 1 0 0 0 0 0 0 0 0 0 0 0 0 0 0 0 0 0 0 0
15 13 9 7 7 6 5 5 5 5 5 4 3 4 4 4 4 4 3 3 4 5 4 2 1 0 0 0 0 0 0 0 0 0 0 0 0 0 0 0 0 0 0
22 21 17 13 13 12 10 10 10 9 10 10 9 7 7 6 5 5 5 5 5 5 4 3 2 1 1 0 0 0 0 0 0 0 0 0 0 0 0 0 0 0 0
27 27 25 23 22 19 17 17 17 17 17 18 17 14 11 9 7 6 6 6 5 5 4 3 3 3 1 1 2 1 0 0 0 0 0 0 0 0 0 0 0 0 0
29 29 29 29 28 25 22 23 25 26 26 25 23 19 15 13 10 8 7 7 6 6 5 5 4 4 3 4 7 6 3 1 1 1 0 0 1 2 1 0 0 1 1
27 28 28 29 29 27 27 29 31 30 28 28 26 21 17 14 11 10 10 11 11 8 8 7 6 7 8 9 11 11 8 5 3 2 1 1 1 3 3 2 2 3 3
23 25 27 30 31 31 32 35 34 29 27 27 27 23 18 14 12 12 13 15 15 14 13 12 12 13 14 14 15 15 13 10 8 6 4 3 2 3 3 4 5 5 5
19 21 27 33 36 35 35 36 33 29 26 27 28 25 19 14 12 13 14 15 16 18 19 17 17 17 16 16 17 16 15 14 11 9 7 6 4 2 3 5 6 7 6
Wind_Speed
11 13 13 12 12 13 13 14 14 14 14 14 14 14 14 14 14 14 14 14 14 14 14 14 14 14 14 14 14 15 15 15 15 15 15 15 15 14 14 14 14 15 16
14 15 13 12 12 13 13 13 13 14 14 14 14 14 13 13 13 13 13 13 14 14 14 14 14 14 14 14 14 14 14 14 15 15 15 15 14 13 12 11 11 13 15
15 15 14 12 13 13 13 13 13 13 14 13 13 13 13 13 13 13 13 13 13 14 14 14 14 14 14 14 14 14 14 14 13 12 11 12 13 13 13 14 15 15 14
15 15 13 14 13 13 13 13 13 13 13 13 13 12 12 12 12 13 13 13 13 13 13 13 14 14 14 14 14 13 13 13 10 8 7 10 12 13 13 14 14 14 14
14 13 15 13 13 12 12 12 12 12 12 12 12 12 12 12 12 12 12 12 13 13 13 13 13 13 13 13 13 13 12 11 7 5 9 10 11 12 13 13 13 13 13
14 14 16 13 13 12 12 12 11 11 11 12 12 11 11 11 12 12 12 12 12 12 12 12 12 12 13 13 12 12 11 8 7 8 8 9 11 11 12 12 12 13 12
14 14 16 13 13 12 11 11 11 11 10 11 11 11 11 11 11 11 11 11 11 11 12 12 12 12 12 11 11 11 8 4 4 8 7 9 11 11 11 11 12 12 11
13 14 15 13 12 11 11 11 10 10 10 10 10 10 10 10 10 10 10 11 10 11 11 11 11 11 10 10 10 9 6 4 6 7 7 10 11 10 10 10 10 11 10
12 12 13 14 12 11 10 10 10 9 9 9 9 9 9 10 10 9 9 10 10 10 10 10 10 9 9 9 9 8 4 4 3 6 7 8 10 9 9 9 9 10 10
11 11 11 11 11 11 11 10 9 9 9 9 9 9 9 10 9 9 9 9 9 9 9 9 9 9 9 8 8 7 5 6 4 7 6 9 9 8 9 9 9 9 9
10 9 10 10 9 9 9 11 10 9 9 9 9 8 8 7 8 8 10 9 8 8 8 8 8 8 8 9 8 7 7 2 5 4 6 11 8 8 8 8 8 8 8
12 11 9 9 8 8 6 8 7 7 8 6 6 7 5 3 3 5 10 8 8 7 7 7 7 8 7 7 9 9 3 3 4 4 7 10 8 7 7 7 7 7 7
12 11 10 9 8 8 5 5 4 3 5 5 6 5 4 4 4 5 5 7 7 8 6 8 8 5 3 2 2 3 1 1 2 3 8 10 7 7 7 7 7 7 7
12 11 10 9 8 6 5 5 4 4 4 4 5 5 5 3 3 3 3 4 4 3 3 3 2 2 1 2 2 1 2 1 1 1 7 9 7 7 7 8 7 7 7
11 11 10 9 8 7 5 4 4 4 4 4 4 4 3 3 3 3 2 2 3 3 4 3 2 3 3 3 3 3 2 1 1 1 5 9 8 8 8 8 8 8 8
11 11 10 10 9 8 7 5 4 4 3 4 4 5 5 3 3 3 4 3 3 3 2 3 3 3 3 2 3 3 3 2 2 3 3 8 10 9 9 9 9 9 9
11 10 10 10 10 9 8 8 5 5 5 4 4 5 5 5 4 4 3 4 3 3 3 4 4 4 4 4 4 3 3 3 3 3 4 3 7 12 11 10 10 10 10
10 10 10 9 10 10 8 7 5 5 5 5 4 5 6 6 6 5 4 4 4 4 4 4 4 4 4 4 3 4 3 3 5 5 5 5 4 5 11 14 12 11 12
10 10 10 10 10 10 9 7 6 5 5 5 5 5 6 7 7 6 5 3 4 4 4 5 4 4 4 4 4 5 5 5 4 6 6 7 6 5 5 11 14 12 13
10 10 10 10 10 9 7 6 6 6 6 6 6 6 7 7 8 7 6 6 6 5 4 4 3 4 4 5 6 4 4 5 6 5 6 6 6 8 8 7 9 12 15
10 10 10 10 10 8 7 7 7 7 7 7 7 8 8 8 8 7 6 5 6 6 6 6 5 6 6 5 5 5 5 7 7 6 6 6 7 7 7 7 7 6 8
11 11 11 11 11 10 8 6 5 6 6 7 6 7 9 9 9 8 8 7 7 6 7 7 7 6 5 5 5 5 5 5 6 7 6 6 6 6 7 8 7 7 7
12 12 11 11 11 11 9 7 5 5 5 6 7 7 9 10 10 9 9 8 7 7 7 8 8 8 6 5 5 5 5 4 2 4 5 5 5 5 6 6 8 7 8
12 11 11 10 10 10 10 9 9 8 8 8 6 6 7 9 10 10 10 9 8 8 7 9 9 7 8 6 5 6 7 5 4 3 4 5 5 5 6 5 6 6 7
10 10 10 10 10 10 10 9 9 9 8 6 6 6 7 7 9 10 9 9 9 8 9 9 7 9 7 8 6 5 6 6 8 6 5 4 4 4 5 5 4 4 5
9 9 8 9 9 10 10 9 10 10 8 7 7 6 6 5 6 9 9 8 8 8 8 9 9 10 8 8 7 6 6 5 6 6 7 6 5 4 4 3 4 4 4
Wind_Direction
131 121 121 122 119 115 113 111 111 109 108 108 106 104 103 102 100 98 98 99 100 100 99 99 100 101 101 102 104 104 105 106 107 106 104 104 105 107 110 117 121 107 110
132 125 125 123 121 119 116 115 113 112 111 109 107 106 105 103 102 101 101 101 102 101 101 100 100 100 101 102 103 105 106 107 108 110 112 109 104 104 105 101 93 106 115
133 129 133 125 122 120 118 117 116 115 113 111 109 107 106 104 104 104 103 103 103 103 103 102 101 101 102 103 104 105 106 109 112 122 136 118 108 104 104 102 103 112 114
134 135 131 127 126 123 121 119 118 116 114 112 110 108 106 105 105 105 105 105 104 105 105 104 104 104 104 104 104 106 108 110 121 156 127 109 111 107 110 110 111 113 114
132 128 125 134 130 127 125 122 120 118 116 114 112 109 107 106 105 105 105 104 105 105 106 106 106 106 106 105 105 106 109 114 138 144 99 102 104 110 112 113 113 114 115
139 138 129 138 134 132 129 127 124 121 117 115 114 111 109 108 107 106 106 105 105 107 108 108 109 108 108 107 107 110 115 137 172 106 107 112 109 113 114 116 116 115 115
143 136 134 140 137 136 134 131 128 125 121 117 116 113 111 110 108 108 107 107 107 109 111 111 110 109 110 110 111 113 119 174 121 106 111 102 103 113 115 115 118 118 119
144 140 132 140 140 139 138 135 132 129 126 124 121 117 114 112 110 110 110 110 110 111 114 114 112 111 112 112 114 117 133 222 123 112 106 102 106 119 119 119 119 120 120
147 141 146 150 148 146 140 139 137 135 132 128 125 121 118 117 115 114 113 113 114 114 116 117 116 114 116 117 118 121 126 288 128 115 116 108 117 124 125 128 127 126 125
153 151 152 155 151 157 152 146 142 140 136 132 130 129 127 127 125 127 132 118 119 120 120 121 119 118 121 125 125 129 155 234 126 121 114 111 127 133 132 132 135 133 132
160 159 163 156 158 162 154 145 156 152 145 151 149 147 168 159 143 154 112 123 127 125 124 123 122 126 137 138 136 153 199 183 110 98 96 111 140 145 143 142 141 141 140
170 172 168 168 160 167 159 154 169 168 157 176 148 161 164 134 129 120 117 132 134 134 135 129 135 166 196 156 152 189 192 145 133 128 110 129 152 158 153 153 152 153 151
175 177 173 171 169 178 166 170 170 164 156 167 158 164 151 160 157 151 151 154 158 168 166 153 183 189 166 111 150 172 127 155 139 130 123 147 165 172 169 170 169 168 168
180 181 179 173 179 184 185 173 177 177 174 171 160 188 167 174 171 152 169 161 169 173 166 182 184 164 169 165 189 188 180 206 125 100 125 157 177 185 185 183 184 185 184
185 186 183 182 182 184 190 205 188 187 183 172 170 180 193 187 181 165 167 191 193 170 177 199 203 182 203 200 209 196 215 206 174 208 137 164 186 196 198 196 196 199 198
191 190 184 188 188 191 193 202 198 198 195 197 189 182 200 205 187 187 186 196 204 203 200 201 203 201 219 218 219 210 230 215 186 226 196 166 189 202 208 208 205 207 207
193 191 189 192 192 198 203 203 203 205 197 205 194 192 204 211 198 210 207 203 206 198 187 210 214 218 217 215 215 221 232 241 221 218 232 210 185 196 207 211 212 213 214
193 191 193 197 194 199 207 210 211 209 204 213 206 197 205 212 214 223 225 217 203 214 209 207 222 220 222 234 227 238 231 221 229 223 221 218 224 202 195 203 213 217 220
194 192 193 201 199 201 202 205 216 208 214 216 212 211 206 211 216 224 232 232 224 223 224 233 207 232 230 237 235 224 237 235 230 229 228 230 221 226 214 184 202 215 221
193 193 195 198 201 201 201 201 213 215 215 216 216 220 219 216 217 226 226 221 231 228 228 238 238 237 250 246 256 245 238 239 239 232 236 233 225 223 223 210 201 208 214
192 193 197 202 196 198 201 205 205 211 215 216 218 216 221 227 222 227 244 222 231 231 233 230 233 229 237 241 249 246 234 233 238 236 234 240 230 227 229 222 227 228 204
194 197 198 201 200 202 206 212 216 221 219 221 227 220 223 226 225 222 229 232 227 231 231 233 231 242 237 225 245 254 248 224 215 225 221 224 233 228 227 221 220 224 244
199 201 201 200 201 206 207 210 215 219 226 222 221 220 222 222 222 229 227 230 229 231 229 229 228 234 241 234 236 253 265 262 244 201 213 226 228 233 237 231 223 222 228
201 200 203 200 201 204 206 214 214 224 230 230 227 225 226 225 226 224 229 228 229 234 231 231 226 232 237 241 227 234 256 288 282 258 215 207 214 227 240 245 238 224 225
199 197 196 199 201 204 210 215 219 229 235 239 236 234 232 230 228 226 225 225 226 234 235 239 237 235 233 241 242 234 237 241 248 262 263 249 224 221 224 232 245 246 233
191 191 189 194 198 203 209 215 222 233 238 242 239 236 232 230 228 224 224 226 229 232 233 235 238 234 237 244 246 244 241 242 241 245 254 256 258 249 235 239 243 241 237